| time (UTC) | temp C | wind direction | speed KPH | gust KPH | rain 1hr cm | rain 24hr cm | rain mn cm | humidity % | barometer mb |
| 20260901115437 | 22 | 178 | 4.8 | 6.4 | 0.00 | 0.00 | 0.00 | 61 | 1014.3 |
| 20260901114934 | 22 | 161 | 3.2 | 4.8 | 0.00 | 0.00 | 0.00 | 61 | 1014.2 |
| 20260901114429 | 22 | 185 | 1.6 | 4.8 | 0.00 | 0.00 | 0.00 | 62 | 1014.2 |
| 20260901113927 | 22 | 157 | 0.0 | 4.8 | 0.00 | 0.00 | 0.00 | 62 | 1014.3 |
| 20260901113427 | 22 | 151 | 0.0 | 3.2 | 0.00 | 0.00 | 0.00 | 62 | 1014.1 |
| 20260901112922 | 22 | 173 | 1.6 | 3.2 | 0.00 | 0.00 | 0.00 | 62 | 1014.2 |
| 20260901112417 | 22 | 151 | 0.0 | 3.2 | 0.00 | 0.00 | 0.00 | 62 | 1014.3 |
| 20260901111912 | 22 | 160 | 0.0 | 4.8 | 0.00 | 0.00 | 0.00 | 62 | 1013.9 |
| 20260901111410 | 22 | 180 | 1.6 | 4.8 | 0.00 | 0.00 | 0.00 | 62 | 1014.2 |
| 20260901110909 | 23 | 168 | 3.2 | 4.8 | 0.00 | 0.00 | 0.00 | 61 | 1014.1 |
| 20260901110405 | 23 | 172 | 3.2 | 4.8 | 0.00 | 0.00 | 0.00 | 60 | 1014.1 |
| 20260901105901 | 23 | 172 | 3.2 | 3.2 | 0.00 | 0.00 | 0.00 | 60 | 1013.9 |
| 20260901105356 | 23 | 168 | 1.6 | 4.8 | 0.00 | 0.00 | 0.00 | 59 | 1014.1 |
| 20260901104852 | 23 | 161 | 3.2 | 4.8 | 0.00 | 0.00 | 0.00 | 59 | 1013.8 |
| 20260901104347 | 23 | 151 | 0.0 | 4.8 | 0.00 | 0.00 | 0.00 | 59 | 1013.7 |
| 20260901103842 | 23 | 188 | 0.0 | 3.2 | 0.00 | 0.00 | 0.00 | 59 | 1014.2 |
| 20260901103336 | 23 | 195 | 0.0 | 3.2 | 0.00 | 0.00 | 0.00 | 59 | 1014.1 |
| 20260901102831 | 23 | 114 | 0.0 | 3.2 | 0.00 | 0.00 | 0.00 | 58 | 1014.1 |
| 20260901102326 | 23 | 157 | 1.6 | 3.2 | 0.00 | 0.00 | 0.00 | 59 | 1014.1 |
| 20260901101821 | 23 | 195 | 0.0 | 3.2 | 0.00 | 0.00 | 0.00 | 58 | 1013.8 |
| 20260901101320 | 23 | 157 | 0.0 | 4.8 | 0.00 | 0.00 | 0.00 | 58 | 1014.2 |
| 20260901100815 | 23 | 154 | 1.6 | 6.4 | 0.00 | 0.00 | 0.00 | 58 | 1013.8 |
| 20260901100310 | 23 | 194 | 1.6 | 6.4 | 0.00 | 0.00 | 0.00 | 58 | 1013.8 |
| 20260901095808 | 23 | 151 | 3.2 | 6.4 | 0.00 | 0.00 | 0.00 | 58 | 1013.7 |
| 20260901095307 | 23 | 145 | 0.0 | 4.8 | 0.00 | 0.00 | 0.00 | 58 | 1013.8 |
| 20260901094801 | 23 | 155 | 4.8 | 6.4 | 0.00 | 0.00 | 0.00 | 58 | 1013.5 |
| 20260901094255 | 23 | 150 | 3.2 | 8.0 | 0.00 | 0.00 | 0.00 | 59 | 1013.6 |
| 20260901093750 | 23 | 186 | 4.8 | 6.4 | 0.00 | 0.00 | 0.00 | 58 | 1013.9 |
| 20260901093249 | 23 | 173 | 0.0 | 3.2 | 0.00 | 0.00 | 0.00 | 58 | 1013.6 |
| 20260901092746 | 24 | 157 | 1.6 | 4.8 | 0.00 | 0.00 | 0.00 | 58 | 1013.6 |
| 20260901092241 | 24 | 191 | 3.2 | 9.7 | 0.00 | 0.00 | 0.00 | 58 | 1013.6 |
| 20260901091736 | 24 | 162 | 4.8 | 8.0 | 0.00 | 0.00 | 0.00 | 58 | 1013.7 |
| 20260901091232 | 24 | 160 | 6.4 | 8.0 | 0.00 | 0.00 | 0.00 | 58 | 1013.9 |
| 20260901090726 | 24 | 180 | 4.8 | 8.0 | 0.00 | 0.00 | 0.00 | 57 | 1013.8 |
| 20260901090222 | 24 | 175 | 8.0 | 8.0 | 0.00 | 0.00 | 0.00 | 57 | 1014.1 |
| 20260901085718 | 24 | 145 | 1.6 | 9.7 | 0.00 | 0.00 | 0.00 | 57 | 1013.8 |
| 20260901085213 | 25 | 180 | 4.8 | 8.0 | 0.00 | 0.00 | 0.00 | 56 | 1013.7 |
| 20260901084709 | 25 | 168 | 8.0 | 11.3 | 0.00 | 0.00 | 0.00 | 56 | 1013.5 |
| 20260901084205 | 24 | 159 | 8.0 | 9.7 | 0.00 | 0.00 | 0.00 | 56 | 1013.7 |
| 20260901083659 | 25 | 165 | 8.0 | 8.0 | 0.00 | 0.00 | 0.00 | 56 | 1013.9 |
| 20260901083158 | 25 | 177 | 4.8 | 6.4 | 0.00 | 0.00 | 0.00 | 55 | 1013.5 |
| 20260901082652 | 25 | 180 | 4.8 | 8.0 | 0.00 | 0.00 | 0.00 | 54 | 1013.7 |
| 20260901082148 | 25 | 180 | 4.8 | 8.0 | 0.00 | 0.00 | 0.00 | 53 | 1013.7 |
| 20260901081643 | 25 | 158 | 6.4 | 8.0 | 0.00 | 0.00 | 0.00 | 53 | 1013.8 |
| 20260901081142 | 25 | 188 | 3.2 | 9.7 | 0.00 | 0.00 | 0.00 | 52 | 1013.6 |
| 20260901080637 | 25 | 180 | 6.4 | 8.0 | 0.00 | 0.00 | 0.00 | 52 | 1013.9 |
| 20260901080136 | 25 | 189 | 4.8 | 8.0 | 0.00 | 0.00 | 0.00 | 51 | 1013.4 |
| 20260901075631 | 25 | 190 | 8.0 | 8.0 | 0.00 | 0.00 | 0.00 | 51 | 1013.6 |
| 20260901075131 | 25 | 154 | 3.2 | 6.4 | 0.00 | 0.00 | 0.00 | 51 | 1013.6 |
| 20260901074630 | 25 | 165 | 0.0 | 3.2 | 0.00 | 0.00 | 0.00 | 52 | 1013.8 |
| 20260901074125 | 25 | 261 | 0.0 | 1.6 | 0.00 | 0.00 | 0.00 | 51 | 1013.7 |
| 20260901073622 | 26 | 206 | 0.0 | 4.8 | 0.00 | 0.00 | 0.00 | 49 | 1013.8 |
| 20260901073117 | 26 | 166 | 3.2 | 4.8 | 0.00 | 0.00 | 0.00 | 50 | 1013.7 |
| 20260901072613 | 25 | 154 | 0.0 | 3.2 | 0.00 | 0.00 | 0.00 | 51 | 1013.8 |
| 20260901072107 | 25 | 78 | 0.0 | 3.2 | 0.00 | 0.00 | 0.00 | 51 | 1013.7 |
| 20260901071602 | 25 | 105 | 1.6 | 3.2 | 0.00 | 0.00 | 0.00 | 50 | 1013.5 |
| 20260901071101 | 25 | 140 | 0.0 | 3.2 | 0.00 | 0.00 | 0.00 | 50 | 1013.7 |
| 20260901070555 | 25 | 195 | 0.0 | 3.2 | 0.00 | 0.00 | 0.00 | 49 | 1013.8 |
| 20260901070051 | 26 | 90 | 0.0 | 1.6 | 0.00 | 0.00 | 0.00 | 49 | 1013.6 |
| 20260901065545 | 26 | 157 | 0.0 | 3.2 | 0.00 | 0.00 | 0.00 | 49 | 1013.5 |
| 20260901065045 | 26 | 173 | 0.0 | 1.6 | 0.00 | 0.00 | 0.00 | 48 | 1013.8 |
| 20260901064542 | 26 | 120 | 0.0 | 4.8 | 0.00 | 0.00 | 0.00 | 48 | 1013.8 |
| 20260901064038 | 27 | 176 | 3.2 | 6.4 | 0.00 | 0.00 | 0.00 | 48 | 1013.8 |
| 20260901063535 | 27 | 162 | 1.6 | 8.0 | 0.00 | 0.00 | 0.00 | 47 | 1014.1 |
| 20260901063031 | 27 | 180 | 1.6 | 3.2 | 0.00 | 0.00 | 0.00 | 46 | 1014.1 |
| 20260901062526 | 27 | 174 | 1.6 | 4.8 | 0.00 | 0.00 | 0.00 | 46 | 1014.1 |
| 20260901062022 | 27 | 194 | 4.8 | 11.3 | 0.00 | 0.00 | 0.00 | 45 | 1013.6 |
| 20260901061518 | 27 | 192 | 6.4 | 8.0 | 0.00 | 0.00 | 0.00 | 45 | 1013.6 |
| 20260901061013 | 28 | 169 | 8.0 | 11.3 | 0.00 | 0.00 | 0.00 | 45 | 1013.5 |
| 20260901060513 | 28 | 198 | 4.8 | 11.3 | 0.00 | 0.00 | 0.00 | 45 | 1013.5 |
| 20260901060008 | 28 | 195 | 4.8 | 9.7 | 0.00 | 0.00 | 0.00 | 44 | 1013.5 |
| 20260901055504 | 28 | 158 | 4.8 | 11.3 | 0.00 | 0.00 | 0.00 | 44 | 1013.6 |
| 20260901055001 | 28 | 180 | 4.8 | 11.3 | 0.00 | 0.00 | 0.00 | 44 | 1013.5 |
| 20260901054457 | 28 | 159 | 12.9 | 16.1 | 0.00 | 0.00 | 0.00 | 44 | 1013.4 |
| 20260901053953 | 28 | 156 | 3.2 | 17.7 | 0.00 | 0.00 | 0.00 | 43 | 1013.5 |
| 20260901053448 | 29 | 162 | 9.7 | 16.1 | 0.00 | 0.00 | 0.00 | 44 | 1013.2 |
| 20260901052944 | 29 | 181 | 11.3 | 19.3 | 0.00 | 0.00 | 0.00 | 44 | 1013.2 |
| 20260901052439 | 29 | 190 | 8.0 | 12.9 | 0.00 | 0.00 | 0.00 | 45 | 1013.1 |
| 20260901051937 | 29 | 155 | 8.0 | 14.5 | 0.00 | 0.00 | 0.00 | 45 | 1013.1 |
| 20260901051433 | 29 | 167 | 9.7 | 12.9 | 0.00 | 0.00 | 0.00 | 44 | 1013.1 |
| 20260901050927 | 29 | 195 | 8.0 | 14.5 | 0.00 | 0.00 | 0.00 | 44 | 1013.1 |
| 20260901050423 | 30 | 180 | 11.3 | 16.1 | 0.00 | 0.00 | 0.00 | 44 | 1013.1 |
| 20260901045923 | 30 | 181 | 9.7 | 16.1 | 0.00 | 0.00 | 0.00 | 44 | 1013.1 |
| 20260901045418 | 30 | 180 | 11.3 | 14.5 | 0.00 | 0.00 | 0.00 | 43 | 1012.7 |
| 20260901044913 | 30 | 180 | 9.7 | 16.1 | 0.00 | 0.00 | 0.00 | 43 | 1013.0 |
| 20260901044409 | 30 | 161 | 16.1 | 24.1 | 0.00 | 0.00 | 0.00 | 43 | 1013.0 |
| 20260901043905 | 30 | 163 | 11.3 | 19.3 | 0.00 | 0.00 | 0.00 | 42 | 1013.1 |
| 20260901043401 | 30 | 169 | 8.0 | 20.9 | 0.00 | 0.00 | 0.00 | 42 | 1013.0 |
| 20260901042901 | 30 | 165 | 12.9 | 17.7 | 0.00 | 0.00 | 0.00 | 41 | 1012.9 |
| 20260901042355 | 31 | 212 | 11.3 | 30.6 | 0.00 | 0.00 | 0.00 | 40 | 1013.1 |
| 20260901041851 | 31 | 146 | 11.3 | 27.4 | 0.00 | 0.00 | 0.00 | 38 | 1012.9 |
| 20260901041345 | 31 | 162 | 11.3 | 24.1 | 0.00 | 0.00 | 0.00 | 38 | 1012.7 |
| 20260901040839 | 31 | 159 | 16.1 | 32.2 | 0.00 | 0.00 | 0.00 | 38 | 1012.9 |
| 20260901040339 | 31 | 167 | 16.1 | 33.8 | 0.00 | 0.00 | 0.00 | 37 | 1012.4 |
| 20260901035833 | 31 | 182 | 9.7 | 22.5 | 0.00 | 0.00 | 0.00 | 36 | 1012.5 |
| 20260901035331 | 31 | 151 | 11.3 | 22.5 | 0.00 | 0.00 | 0.00 | 36 | 1012.5 |
| 20260901034824 | 31 | 182 | 12.9 | 20.9 | 0.00 | 0.00 | 0.00 | 35 | 1012.4 |
| 20260901034319 | 32 | 162 | 4.8 | 14.5 | 0.00 | 0.00 | 0.00 | 34 | 1012.4 |
| 20260901033814 | 31 | 189 | 4.8 | 19.3 | 0.00 | 0.00 | 0.00 | 34 | 1012.3 |
| 20260901033313 | 31 | 173 | 6.4 | 14.5 | 0.00 | 0.00 | 0.00 | 34 | 1012.3 |
| 20260901032812 | 31 | 170 | 6.4 | 14.5 | 0.00 | 0.00 | 0.00 | 34 | 1012.0 |
| 20260901032311 | 32 | 170 | 8.0 | 12.9 | 0.00 | 0.00 | 0.00 | 33 | 1011.9 |
| 20260901031806 | 32 | 151 | 8.0 | 16.1 | 0.00 | 0.00 | 0.00 | 33 | 1012.2 |
| 20260901031302 | 32 | 157 | 6.4 | 14.5 | 0.00 | 0.00 | 0.00 | 33 | 1012.0 |
| 20260901030802 | 32 | 182 | 14.5 | 14.5 | 0.00 | 0.00 | 0.00 | 33 | 1011.9 |
| 20260901030258 | 32 | 171 | 6.4 | 11.3 | 0.00 | 0.00 | 0.00 | 32 | 1012.0 |
| 20260901025756 | 32 | 111 | 8.0 | 12.9 | 0.00 | 0.00 | 0.00 | 32 | 1011.4 |
| 20260901025251 | 32 | 163 | 4.8 | 12.9 | 0.00 | 0.00 | 0.00 | 32 | 1011.8 |
| 20260901024746 | 32 | 120 | 4.8 | 9.7 | 0.00 | 0.00 | 0.00 | 32 | 1011.5 |
| 20260901024245 | 32 | 158 | 6.4 | 11.3 | 0.00 | 0.00 | 0.00 | 32 | 1011.4 |
| 20260901023743 | 32 | 166 | 9.7 | 9.7 | 0.00 | 0.00 | 0.00 | 32 | 1011.1 |
| 20260901023239 | 32 | 158 | 9.7 | 11.3 | 0.00 | 0.00 | 0.00 | 32 | 1011.1 |
| 20260901022734 | 32 | 196 | 4.8 | 11.3 | 0.00 | 0.00 | 0.00 | 31 | 1010.7 |
| 20260901022229 | 32 | 153 | 6.4 | 8.0 | 0.00 | 0.00 | 0.00 | 32 | 1010.8 |
| 20260901021725 | 32 | 156 | 3.2 | 6.4 | 0.00 | 0.00 | 0.00 | 31 | 1010.4 |
| 20260901021220 | 32 | 152 | 3.2 | 8.0 | 0.00 | 0.00 | 0.00 | 31 | 1010.3 |
| 20260901020715 | 32 | 168 | 6.4 | 8.0 | 0.00 | 0.00 | 0.00 | 31 | 1010.3 |
| 20260901020211 | 32 | 170 | 3.2 | 6.4 | 0.00 | 0.00 | 0.00 | 31 | 1010.2 |
| 20260901015706 | 32 | 190 | 3.2 | 8.0 | 0.00 | 0.00 | 0.00 | 30 | 1010.0 |
| 20260901015201 | 32 | 151 | 4.8 | 6.4 | 0.00 | 0.00 | 0.00 | 30 | 1009.9 |
| 20260901014655 | 33 | 150 | 4.8 | 6.4 | 0.00 | 0.00 | 0.00 | 30 | 1009.9 |
| 20260901014151 | 33 | 114 | 0.0 | 6.4 | 0.00 | 0.00 | 0.00 | 30 | 1009.7 |
| 20260901013647 | 33 | 163 | 4.8 | 8.0 | 0.00 | 0.00 | 0.00 | 30 | 1009.8 |
| 20260901013142 | 33 | 185 | 3.2 | 8.0 | 0.00 | 0.00 | 0.00 | 30 | 1009.9 |
| 20260901012637 | 34 | 156 | 6.4 | 9.7 | 0.00 | 0.00 | 0.00 | 29 | 1009.8 |
| 20260901012132 | 34 | 146 | 3.2 | 8.0 | 0.00 | 0.00 | 0.00 | 29 | 1009.7 |
| 20260901011628 | 34 | 152 | 3.2 | 11.3 | 0.00 | 0.00 | 0.00 | 29 | 1009.7 |
| 20260901011126 | 35 | 185 | 4.8 | 11.3 | 0.00 | 0.00 | 0.00 | 29 | 1009.7 |
| 20260901010622 | 35 | 156 | 6.4 | 14.5 | 0.00 | 0.00 | 0.00 | 28 | 1009.8 |
| 20260901010121 | 35 | 167 | 4.8 | 9.7 | 0.00 | 0.00 | 0.00 | 28 | 1009.6 |
| 20260901005620 | 35 | 157 | 3.2 | 6.4 | 0.00 | 0.00 | 0.00 | 27 | 1009.7 |
| 20260901005116 | 35 | 177 | 9.7 | 11.3 | 0.00 | 0.00 | 0.00 | 27 | 1009.7 |
| 20260901004615 | 36 | 180 | 3.2 | 8.0 | 0.00 | 0.00 | 0.00 | 26 | 1009.5 |
| 20260901004110 | 36 | 206 | 3.2 | 11.3 | 0.00 | 0.00 | 0.00 | 26 | 1009.9 |
| 20260901003605 | 36 | 176 | 3.2 | 12.9 | 0.00 | 0.00 | 0.00 | 27 | 1009.7 |
| 20260901003103 | 36 | 160 | 1.6 | 6.4 | 0.00 | 0.00 | 0.00 | 26 | 1009.7 |
| 20260901002558 | 36 | 150 | 11.3 | 11.3 | 0.00 | 0.00 | 0.00 | 26 | 1009.8 |
| 20260901002053 | 36 | 150 | 6.4 | 16.1 | 0.00 | 0.00 | 0.00 | 27 | 1009.7 |
| 20260901001553 | 36 | 179 | 8.0 | 14.5 | 0.00 | 0.00 | 0.00 | 27 | 1009.7 |
| 20260901001048 | 36 | 103 | 3.2 | 8.0 | 0.00 | 0.00 | 0.00 | 26 | 1009.8 |
| 20260901000543 | 36 | 176 | 9.7 | 14.5 | 0.00 | 0.00 | 0.00 | 26 | 1009.7 |
| 20260901000039 | 37 | 81 | 0.0 | 9.7 | 0.00 | 0.00 | 0.00 | 25 | 1009.7 |
| 20260831235533 | 36 | 147 | 4.8 | 16.1 | 0.00 | 0.00 | 0.00 | 25 | 1009.8 |
| 20260831235029 | 37 | 164 | 11.3 | 16.1 | 0.00 | 0.00 | 0.00 | 25 | 1009.7 |
| 20260831234528 | 37 | 133 | 6.4 | 11.3 | 0.00 | 0.00 | 0.00 | 24 | 1009.6 |
| 20260831234025 | 37 | 180 | 4.8 | 14.5 | 0.00 | 0.00 | 0.00 | 24 | 1009.7 |
| 20260831233519 | 37 | 165 | 4.8 | 11.3 | 0.00 | 0.00 | 0.00 | 24 | 1009.6 |
| 20260831233015 | 37 | 148 | 3.2 | 11.3 | 0.00 | 0.00 | 0.00 | 24 | 1009.4 |
| 20260831232510 | 37 | 102 | 8.0 | 17.7 | 0.00 | 0.00 | 0.00 | 24 | 1009.6 |
| 20260831232006 | 37 | 180 | 3.2 | 14.5 | 0.00 | 0.00 | 0.00 | 24 | 1009.6 |
| 20260831231502 | 37 | 163 | 8.0 | 16.1 | 0.00 | 0.00 | 0.00 | 24 | 1009.5 |
| 20260831230957 | 37 | 147 | 4.8 | 11.3 | 0.00 | 0.00 | 0.00 | 25 | 1009.7 |
| 20260831230453 | 37 | 190 | 8.0 | 20.9 | 0.00 | 0.00 | 0.00 | 25 | 1009.9 |
| 20260831225947 | 37 | 176 | 6.4 | 17.7 | 0.00 | 0.00 | 0.00 | 24 | 1009.9 |
| 20260831225443 | 37 | 169 | 4.8 | 12.9 | 0.00 | 0.00 | 0.00 | 24 | 1009.7 |
| 20260831224938 | 37 | 140 | 4.8 | 30.6 | 0.00 | 0.00 | 0.00 | 24 | 1009.6 |
| 20260831224437 | 37 | 133 | 4.8 | 19.3 | 0.00 | 0.00 | 0.00 | 24 | 1009.8 |
| 20260831223932 | 38 | 58 | 6.4 | 11.3 | 0.00 | 0.00 | 0.00 | 24 | 1009.8 |
| 20260831223428 | 38 | 204 | 4.8 | 12.9 | 0.00 | 0.00 | 0.00 | 25 | 1010.0 |
| 20260831222924 | 38 | 142 | 4.8 | 14.5 | 0.00 | 0.00 | 0.00 | 25 | 1009.8 |
| 20260831222420 | 38 | 190 | 0.0 | 11.3 | 0.00 | 0.00 | 0.00 | 24 | 1010.2 |
| 20260831221915 | 37 | 148 | 4.8 | 12.9 | 0.00 | 0.00 | 0.00 | 25 | 1010.0 |
| 20260831221411 | 37 | 188 | 9.7 | 14.5 | 0.00 | 0.00 | 0.00 | 25 | 1010.2 |
| 20260831220906 | 37 | 183 | 4.8 | 11.3 | 0.00 | 0.00 | 0.00 | 24 | 1010.2 |
| 20260831220401 | 37 | 174 | 4.8 | 11.3 | 0.00 | 0.00 | 0.00 | 23 | 1010.4 |
| 20260831215856 | 37 | 160 | 4.8 | 19.3 | 0.00 | 0.00 | 0.00 | 23 | 1010.4 |
| 20260831215352 | 37 | 154 | 4.8 | 11.3 | 0.00 | 0.00 | 0.00 | 21 | 1010.6 |
| 20260831214848 | 37 | 176 | 11.3 | 16.1 | 0.00 | 0.00 | 0.00 | 24 | 1010.8 |
| 20260831214345 | 37 | 180 | 6.4 | 20.9 | 0.00 | 0.00 | 0.00 | 25 | 1010.8 |
| 20260831213845 | 37 | 179 | 9.7 | 12.9 | 0.00 | 0.00 | 0.00 | 25 | 1011.0 |
| 20260831213342 | 37 | 126 | 0.0 | 14.5 | 0.00 | 0.00 | 0.00 | 25 | 1010.9 |
| 20260831212837 | 38 | 210 | 3.2 | 20.9 | 0.00 | 0.00 | 0.00 | 26 | 1011.3 |
| 20260831212334 | 38 | 108 | 14.5 | 14.5 | 0.00 | 0.00 | 0.00 | 26 | 1011.1 |
| 20260831211832 | 38 | 90 | 0.0 | 3.2 | 0.00 | 0.00 | 0.00 | 25 | 1010.9 |
| 20260831211328 | 36 | 186 | 6.4 | 17.7 | 0.00 | 0.00 | 0.00 | 27 | 1011.3 |
| 20260831210827 | 37 | 209 | 0.0 | 11.3 | 0.00 | 0.00 | 0.00 | 27 | 1011.3 |
| 20260831210323 | 38 | 65 | 3.2 | 6.4 | 0.00 | 0.00 | 0.00 | 24 | 1011.4 |
| 20260831205823 | 38 | 181 | 8.0 | 8.0 | 0.00 | 0.00 | 0.00 | 25 | 1011.6 |
| 20260831205319 | 37 | 168 | 8.0 | 14.5 | 0.00 | 0.00 | 0.00 | 26 | 1011.6 |
| 20260831204814 | 37 | 142 | 4.8 | 12.9 | 0.00 | 0.00 | 0.00 | 26 | 1011.9 |
| 20260831204313 | 37 | 96 | 4.8 | 11.3 | 0.00 | 0.00 | 0.00 | 27 | 1011.5 |
| 20260831203812 | 37 | 165 | 4.8 | 12.9 | 0.00 | 0.00 | 0.00 | 27 | 1011.6 |
| 20260831203307 | 37 | 154 | 4.8 | 6.4 | 0.00 | 0.00 | 0.00 | 28 | 1012.0 |
| 20260831202805 | 37 | 123 | 3.2 | 6.4 | 0.00 | 0.00 | 0.00 | 27 | 1012.2 |
| 20260831202300 | 36 | 220 | 4.8 | 16.1 | 0.00 | 0.00 | 0.00 | 29 | 1012.1 |
| 20260831201754 | 37 | 194 | 6.4 | 8.0 | 0.00 | 0.00 | 0.00 | 28 | 1012.1 |
| 20260831201253 | 37 | 180 | 3.2 | 8.0 | 0.00 | 0.00 | 0.00 | 29 | 1012.1 |
| 20260831200749 | 36 | 174 | 6.4 | 17.7 | 0.00 | 0.00 | 0.00 | 29 | 1012.2 |
| 20260831200244 | 36 | 162 | 9.7 | 11.3 | 0.00 | 0.00 | 0.00 | 29 | 1012.4 |
| 20260831195739 | 36 | 195 | 1.6 | 8.0 | 0.00 | 0.00 | 0.00 | 29 | 1012.4 |
| 20260831195235 | 36 | 173 | 8.0 | 11.3 | 0.00 | 0.00 | 0.00 | 29 | 1012.6 |
| 20260831194730 | 36 | 199 | 6.4 | 12.9 | 0.00 | 0.00 | 0.00 | 29 | 1012.7 |
| 20260831194226 | 37 | 129 | 3.2 | 8.0 | 0.00 | 0.00 | 0.00 | 28 | 1012.9 |
| 20260831193719 | 36 | 139 | 6.4 | 12.9 | 0.00 | 0.00 | 0.00 | 30 | 1012.9 |
| 20260831193215 | 36 | 185 | 4.8 | 14.5 | 0.00 | 0.00 | 0.00 | 29 | 1013.0 |
| 20260831192710 | 35 | 257 | 1.6 | 12.9 | 0.00 | 0.00 | 0.00 | 31 | 1012.6 |
| 20260831192205 | 36 | 183 | 8.0 | 12.9 | 0.00 | 0.00 | 0.00 | 30 | 1013.0 |
| 20260831191701 | 35 | 150 | 6.4 | 9.7 | 0.00 | 0.00 | 0.00 | 31 | 1013.0 |
| 20260831191157 | 35 | 175 | 14.5 | 20.9 | 0.00 | 0.00 | 0.00 | 32 | 1013.1 |
| 20260831190652 | 36 | 168 | 3.2 | 14.5 | 0.00 | 0.00 | 0.00 | 32 | 1012.9 |
| 20260831190151 | 35 | 182 | 4.8 | 14.5 | 0.00 | 0.00 | 0.00 | 32 | 1013.0 |
| 20260831185646 | 35 | 157 | 6.4 | 11.3 | 0.00 | 0.00 | 0.00 | 34 | 1013.1 |
| 20260831185142 | 35 | 165 | 8.0 | 16.1 | 0.00 | 0.00 | 0.00 | 34 | 1013.3 |
| 20260831184641 | 35 | 139 | 8.0 | 24.1 | 0.00 | 0.00 | 0.00 | 34 | 1013.2 |
| 20260831184138 | 35 | 195 | 6.4 | 20.9 | 0.00 | 0.00 | 0.00 | 35 | 1013.3 |
| 20260831183637 | 35 | 188 | 4.8 | 16.1 | 0.00 | 0.00 | 0.00 | 34 | 1013.3 |
| 20260831183136 | 34 | 169 | 9.7 | 11.3 | 0.00 | 0.00 | 0.00 | 35 | 1013.5 |
| 20260831182635 | 34 | 161 | 9.7 | 16.1 | 0.00 | 0.00 | 0.00 | 36 | 1013.8 |
| 20260831182132 | 34 | 174 | 4.8 | 17.7 | 0.00 | 0.00 | 0.00 | 34 | 1013.5 |
| 20260831181631 | 34 | 174 | 6.4 | 19.3 | 0.00 | 0.00 | 0.00 | 35 | 1013.7 |
| 20260831181131 | 35 | 160 | 14.5 | 17.7 | 0.00 | 0.00 | 0.00 | 35 | 1013.6 |
| 20260831180627 | 33 | 195 | 1.6 | 24.1 | 0.00 | 0.00 | 0.00 | 36 | 1013.8 |
| 20260831180122 | 33 | 192 | 6.4 | 22.5 | 0.00 | 0.00 | 0.00 | 37 | 1013.7 |
| 20260831175616 | 33 | 174 | 6.4 | 14.5 | 0.00 | 0.00 | 0.00 | 37 | 1013.9 |
| 20260831175113 | 33 | 177 | 11.3 | 19.3 | 0.00 | 0.00 | 0.00 | 39 | 1013.9 |
| 20260831174613 | 32 | 201 | 6.4 | 25.7 | 0.00 | 0.00 | 0.00 | 38 | 1014.2 |
| 20260831174108 | 32 | 169 | 12.9 | 20.9 | 0.00 | 0.00 | 0.00 | 39 | 1014.1 |
| 20260831173606 | 32 | 194 | 8.0 | 17.7 | 0.00 | 0.00 | 0.00 | 40 | 1014.1 |
| 20260831173103 | 32 | 167 | 8.0 | 17.7 | 0.00 | 0.00 | 0.00 | 40 | 1014.1 |
| 20260831172602 | 32 | 200 | 8.0 | 24.1 | 0.00 | 0.00 | 0.00 | 40 | 1013.9 |
| 20260831172057 | 32 | 179 | 8.0 | 20.9 | 0.00 | 0.00 | 0.00 | 42 | 1014.1 |
| 20260831171553 | 32 | 164 | 9.7 | 24.1 | 0.00 | 0.00 | 0.00 | 43 | 1014.4 |
| 20260831171050 | 31 | 150 | 6.4 | 17.7 | 0.00 | 0.00 | 0.00 | 43 | 1014.1 |
| 20260831170545 | 32 | 151 | 4.8 | 16.1 | 0.00 | 0.00 | 0.00 | 43 | 1014.2 |
| 20260831170043 | 32 | 162 | 9.7 | 17.7 | 0.00 | 0.00 | 0.00 | 42 | 1014.4 |
| 20260831165543 | 31 | 135 | 9.7 | 12.9 | 0.00 | 0.00 | 0.00 | 43 | 1014.4 |
| 20260831165040 | 31 | 191 | 8.0 | 20.9 | 0.00 | 0.00 | 0.00 | 45 | 1014.4 |
| 20260831164536 | 31 | 187 | 4.8 | 16.1 | 0.00 | 0.00 | 0.00 | 44 | 1014.5 |
| 20260831164031 | 30 | 169 | 4.8 | 14.5 | 0.00 | 0.00 | 0.00 | 46 | 1014.3 |
| 20260831163525 | 31 | 180 | 8.0 | 16.1 | 0.00 | 0.00 | 0.00 | 45 | 1014.5 |
| 20260831163021 | 30 | 168 | 8.0 | 17.7 | 0.00 | 0.00 | 0.00 | 46 | 1014.7 |
| 20260831162520 | 30 | 186 | 11.3 | 17.7 | 0.00 | 0.00 | 0.00 | 46 | 1014.6 |
| 20260831162018 | 30 | 176 | 6.4 | 17.7 | 0.00 | 0.00 | 0.00 | 47 | 1014.4 |
| 20260831161515 | 30 | 193 | 8.0 | 14.5 | 0.00 | 0.00 | 0.00 | 47 | 1014.5 |
| 20260831161010 | 29 | 150 | 8.0 | 19.3 | 0.00 | 0.00 | 0.00 | 48 | 1014.4 |
| 20260831160510 | 30 | 164 | 8.0 | 17.7 | 0.00 | 0.00 | 0.00 | 48 | 1014.5 |
| 20260831160005 | 29 | 174 | 9.7 | 17.7 | 0.00 | 0.00 | 0.00 | 49 | 1014.3 |
| 20260831155500 | 29 | 159 | 8.0 | 19.3 | 0.00 | 0.00 | 0.00 | 49 | 1014.2 |
| 20260831154955 | 28 | 162 | 3.2 | 20.9 | 0.00 | 0.00 | 0.00 | 49 | 1014.4 |
| 20260831154452 | 28 | 156 | 6.4 | 17.7 | 0.00 | 0.00 | 0.00 | 50 | 1014.2 |
| 20260831153950 | 28 | 189 | 6.4 | 20.9 | 0.00 | 0.00 | 0.00 | 50 | 1014.4 |
| 20260831153446 | 28 | 157 | 20.9 | 22.5 | 0.00 | 0.00 | 0.00 | 50 | 1014.3 |
| 20260831152942 | 28 | 175 | 8.0 | 17.7 | 0.00 | 0.00 | 0.00 | 50 | 1014.2 |
| 20260831152437 | 28 | 160 | 11.3 | 17.7 | 0.00 | 0.00 | 0.00 | 51 | 1014.5 |
| 20260831151933 | 28 | 175 | 8.0 | 17.7 | 0.00 | 0.00 | 0.00 | 52 | 1014.5 |
| 20260831151431 | 27 | 194 | 16.1 | 24.1 | 0.00 | 0.00 | 0.00 | 52 | 1014.3 |
| 20260831150927 | 27 | 198 | 8.0 | 25.7 | 0.00 | 0.00 | 0.00 | 52 | 1014.4 |
| 20260831150422 | 27 | 178 | 12.9 | 22.5 | 0.00 | 0.00 | 0.00 | 52 | 1014.4 |
| 20260831145922 | 27 | 160 | 1.6 | 20.9 | 0.00 | 0.00 | 0.00 | 53 | 1014.5 |
| 20260831145418 | 27 | 197 | 8.0 | 20.9 | 0.00 | 0.00 | 0.00 | 53 | 1014.4 |
| 20260831144914 | 27 | 198 | 8.0 | 14.5 | 0.00 | 0.00 | 0.00 | 53 | 1014.4 |
| 20260831144409 | 26 | 164 | 9.7 | 29.0 | 0.00 | 0.00 | 0.00 | 54 | 1014.2 |
| 20260831143904 | 26 | 182 | 11.3 | 24.1 | 0.00 | 0.00 | 0.00 | 54 | 1014.4 |
| 20260831143359 | 26 | 166 | 8.0 | 25.7 | 0.00 | 0.00 | 0.00 | 55 | 1014.4 |
| 20260831142855 | 26 | 186 | 6.4 | 22.5 | 0.00 | 0.00 | 0.00 | 55 | 1014.5 |
| 20260831142350 | 26 | 166 | 11.3 | 22.5 | 0.00 | 0.00 | 0.00 | 55 | 1014.4 |
| 20260831141849 | 26 | 180 | 14.5 | 24.1 | 0.00 | 0.00 | 0.00 | 55 | 1014.4 |
| 20260831141339 | 26 | 132 | 6.4 | 20.9 | 0.00 | 0.00 | 0.00 | 55 | 1014.5 |
| 20260831140834 | 26 | 174 | 19.3 | 22.5 | 0.00 | 0.00 | 0.00 | 55 | 1014.4 |
| 20260831140328 | 26 | 203 | 9.7 | 17.7 | 0.00 | 0.00 | 0.00 | 55 | 1014.4 |
| 20260831135826 | 26 | 190 | 8.0 | 17.7 | 0.00 | 0.00 | 0.00 | 55 | 1014.2 |
| 20260831135321 | 26 | 180 | 4.8 | 12.9 | 0.00 | 0.00 | 0.00 | 55 | 1014.3 |
| 20260831134816 | 25 | 186 | 6.4 | 14.5 | 0.00 | 0.00 | 0.00 | 56 | 1014.3 |
| 20260831134313 | 25 | 179 | 6.4 | 11.3 | 0.00 | 0.00 | 0.00 | 57 | 1014.2 |
| 20260831133812 | 25 | 155 | 12.9 | 12.9 | 0.00 | 0.00 | 0.00 | 57 | 1014.3 |
| 20260831133307 | 25 | 172 | 6.4 | 9.7 | 0.00 | 0.00 | 0.00 | 58 | 1014.2 |
| 20260831132802 | 25 | 184 | 6.4 | 11.3 | 0.00 | 0.00 | 0.00 | 58 | 1013.9 |
| 20260831132257 | 24 | 180 | 6.4 | 9.7 | 0.00 | 0.00 | 0.00 | 59 | 1014.2 |
| 20260831131756 | 24 | 172 | 4.8 | 12.9 | 0.00 | 0.00 | 0.00 | 59 | 1013.6 |
| 20260831131253 | 24 | 164 | 4.8 | 8.0 | 0.00 | 0.00 | 0.00 | 59 | 1013.8 |
| 20260831130748 | 23 | 209 | 0.0 | 9.7 | 0.00 | 0.00 | 0.00 | 59 | 1013.6 |
| 20260831130243 | 23 | 159 | 3.2 | 8.0 | 0.00 | 0.00 | 0.00 | 59 | 1013.4 |
| 20260831125742 | 23 | 175 | 4.8 | 8.0 | 0.00 | 0.00 | 0.00 | 60 | 1013.6 |
| 20260831125238 | 23 | 168 | 1.6 | 6.4 | 0.00 | 0.00 | 0.00 | 60 | 1013.7 |
| 20260831124732 | 23 | 162 | 0.0 | 6.4 | 0.00 | 0.00 | 0.00 | 60 | 1013.5 |
| 20260831124228 | 23 | 158 | 3.2 | 9.7 | 0.00 | 0.00 | 0.00 | 60 | 1013.4 |
| 20260831123723 | 23 | 180 | 8.0 | 12.9 | 0.00 | 0.00 | 0.00 | 60 | 1013.2 |
| 20260831123222 | 23 | 169 | 4.8 | 8.0 | 0.00 | 0.00 | 0.00 | 59 | 1013.1 |
| 20260831122721 | 23 | 169 | 11.3 | 11.3 | 0.00 | 0.00 | 0.00 | 59 | 1013.0 |
| 20260831122218 | 24 | 172 | 4.8 | 8.0 | 0.00 | 0.00 | 0.00 | 59 | 1013.1 |
| 20260831121716 | 24 | 178 | 4.8 | 11.3 | 0.00 | 0.00 | 0.00 | 58 | 1013.0 |
| 20260831121213 | 24 | 178 | 11.3 | 11.3 | 0.00 | 0.00 | 0.00 | 58 | 1013.1 |
| 20260831120708 | 24 | 180 | 8.0 | 11.3 | 0.00 | 0.00 | 0.00 | 58 | 1013.1 |
| 20260831120203 | 24 | 173 | 3.2 | 14.5 | 0.00 | 0.00 | 0.00 | 57 | 1013.0 |
| 20260831115659 | 25 | 206 | 4.8 | 12.9 | 0.00 | 0.00 | 0.00 | 57 | 1012.6 |